{"data":{"norad_id":58442,"intl_designator":"2023-183F","name":"STARLINK-30959","alt_names":[],"object_type":"PAYLOAD","status":"ACTIVE","operator":null,"country":"US","launch_date":"2023-11-28","launch_site_code":"AFETR","launch_vehicle":null,"mission":null,"orbit_class":"UNKNOWN","rcs_meters":null,"size_class":null,"mass_kg":null,"dimensions":null,"purposes":["comms"],"wikipedia_slug":null,"has_3d_model":false,"image_url":null,"decayed_at":null,"tle_current":{"epoch":"2026-09-20T09:13:10.945344Z","epoch_age_seconds":156828,"freshness":"FRESH","line1":"1 58442U 23183F   26263.38415446  .00000012  00000+0  99491-5 0  9993","line2":"2 58442  43.0046  21.8084 0001446 284.0265  76.0426 15.27574350156519","mean_motion":15.2757435,"eccentricity":0.0001446,"inclination_deg":43.0046,"raan_deg":21.8084,"arg_perigee_deg":284.0265,"mean_anomaly_deg":76.0426,"bstar":9.9491e-6,"rev_number":15651,"period_min":94.267097375653,"perigee_km":482.07388426852,"apogee_km":484.05814418023,"semimajor_km":6861.2030142244,"source":"CELESTRAK","updated_at":"2026-09-21T09:00:33.876150Z"}}}